sat.trackr.live / text

‹ back to catalog

STARLINK-5667

NORAD 55337 · 2023-013G

PAYLOAD ACTIVE UNKNOWN

§ Identity

Operator
Country
US
Launch date
2023-01-26
Launch site
AFETR
Launch vehicle
Mass (kg)
RCS (m²)

Purposes: comms

External: N2YO · Heavens-Above · Gunter

§ Orbital elements

Epoch: 2026-05-24T21:39:51.130368Z

Period
94.27 min
Inclination
43.0023°
Eccentricity
0.0001011
Mean motion
15.27576108 rev/d
Perigee alt
482.4 km
Apogee alt
483.8 km
Semi-major
6,861.2 km
B*
-4.6719e-6
RAAN
218.7130°
Arg perigee
268.7590°
Mean anomaly
91.3146°
Rev number
18,349

§ Raw data

STARLINK-56671 55337U 23013G   26144.90267512 -.00000391  00000+0 -46719-5 0  99972 55337  43.0023 218.7130 0001011 268.7590  91.3146 15.27576108183490

JSON: /api/v1/satellites/55337 · /tle

For live sub-satellite position, see the globe view (requires WebGL).

§ Visibility from observer

Set your observer location to see the next 7 days of passes ≥ 10°. The values pass through the URL so the page stays shareable.

No JS? Fill the form by hand. The geolocation button needs JavaScript.